STARLINK-1961 (47562 NORAD) Tracking and Keplerian Element Data

This shows tracking and keplerian element data for the satellite.

Feedback or suggestion? Click here.




ElementValue
Catalog47562
NameSTARLINK-1961
Epoch Orbit1076
Epoch Day99.91667824
Epoch Year2021
RAAN167.3369
Inclination53.054
Eccentricity0.0003517
Argument of Perigee8.3341
Mean Anonmoly134.4561
Mean Motion15.62743819
Decay Rate8.336E-05
L11 47562U 21009Q 21099.91667824 .00008336 00000-0 96822-4 0 9991
L22 47562 53.0540 167.3369 0003517 8.3341 134.4561 15.62743819 10767

Live tracking and technical data element details for STARLINK-1961 (NORAD 47562). STARLINK-1961 can be tracked NOW for your location showing map with azimuth and elevation plus other details from your city location.

Track the satellite on the map from your city or location and see movement details for azimuth, elevation, latitude, longitude, range, height, and movement on the map or in text.







IsCatalogInMostPopularTable: catalog: 47562, numindb: 18
Update: records affected: 1



GetName: 47562 STARLINK-1961

Hit Count: updated at: Sat, 10 Apr 2021 19:17:09 GMT